Tracking 19817 objects as of 20-Aug-2019
HD Live streaming from Space Station
objects crossing your sky now

FENGYUN 1C DEB

Track FENGYUN 1C DEB now!
10-day predictions


NORAD ID: 36167
Int'l Code: 1999-025DSQ
Perigee: 718.6 km
Apogee: 839.5 km
Inclination: 98.9 °
Period: 100.3 minutes
Semi major axis: 7150 km
RCS: 0.0111 m2 (small)
Launch date: May 10, 1999
Source: People's Republic of China (PRC)
Launch site: Taiyaun Space Center, China (TSC)

Note: This is SATELLITE DEBRIS
aabbcc
Your satellite tracking list
Your tracking list is empty




NASA's NSSDC Master Catalog

Two Line Element Set (TLE):
1 36167U 99025DSQ 19228.26933907  .00000316  00000-0  12051-3 0  9991
2 36167  98.8843  16.2657 0084552 240.6756 118.5962 14.35951943555344
Source of the keplerian elements: AFSPC